Weather reports worldwide

Advertisment
Hereford/Credenhill, United Kingdom (3522): temperature & dewpoint: 10.08.2017 18:00:00 - 16.08.2017 18:00:00 (BST)Hereford/Credenhill, United Kingdom (3522): temperature -20cm & temperature -100cm: 10.08.2017 18:00:00 - 16.08.2017 18:00:00 (BST)Hereford/Credenhill, United Kingdom (3522): wind speed: 10.08.2017 18:00:00 - 16.08.2017 18:00:00 (BST)Hereford/Credenhill, United Kingdom (3522): wind direction: 10.08.2017 18:00:00 - 16.08.2017 18:00:00 (BST)Hereford/Credenhill, United Kingdom (3522): reduced air pressure: 10.08.2017 18:00:00 - 16.08.2017 18:00:00 (BST)Hereford/Credenhill, United Kingdom (3522): visibility: 10.08.2017 18:00:00 - 16.08.2017 18:00:00 (BST)Hereford/Credenhill, United Kingdom (3522): precipitation: 10.08.2017 18:00:00 - 16.08.2017 18:00:00 (BST)
Date & Time tt [°C] td [°C] tt -20cm [°C] tt -100cm [°C] ff [km/h] ff [kn] dd ppp [hPa] vv [km] rr [mm]
16.08.2017 18:00:00 18,4 13,2 - - 9 5 SSE 1015,2 30 0,0
16.08.2017 17:00:00 18,8 13,1 - - 8 4 S 1015,8 24 0,0
16.08.2017 16:00:00 19,7 12,8 - - 8 4 SSE 1015,8 30 0,0
16.08.2017 15:00:00 19,9 12,8 - - 9 5 S 1016,6 29 0,0
16.08.2017 14:00:00 19,5 12,5 - - 8 4 S 1017,2 30 0,0
16.08.2017 13:00:00 18,8 12,4 - - 8 4 SSE 1017,6 9 0,0
16.08.2017 12:00:00 18,6 11,9 - - 8 4 SSE 1018,2 9 0,0
16.08.2017 11:00:00 18,4 12,0 - - 9 5 S 1018,4 9 0,0
16.08.2017 10:00:00 16,1 12,7 15,7 15,0 5 3 SSE 1019,0 8 0,0
16.08.2017 09:00:00 13,5 13,5 - - 4 2 WSW 1019,7 5 0,0
16.08.2017 08:00:00 10,6 10,6 - - 2 1 E 1019,4 4,0 0,0
16.08.2017 07:00:00 8,6 8,6 - - 4 2 ENE 1019,4 2,6 0,0
16.08.2017 06:00:00 8,2 8,2 - - 2 1 NE 1019,5 2,6 0,0
16.08.2017 05:00:00 8,3 8,2 - - 2 1 ENE 1019,6 4,0 0,0
16.08.2017 04:00:00 8,0 7,7 - - 4 2 ESE 1019,6 4,3 0,0
16.08.2017 03:00:00 9,5 9,3 - - 4 2 WSW 1019,9 14 0,0
16.08.2017 02:00:00 10,0 9,2 - - 0 0 N 1019,9 15 0,0
16.08.2017 01:00:00 11,1 9,9 - - 5 3 SW 1019,8 11 0,0
16.08.2017 00:00:00 11,7 10,2 - - 8 4 WNW 1019,8 15 0,0
15.08.2017 23:00:00 12,2 9,9 - - 9 5 WNW 1019,2 10 0,0
15.08.2017 22:00:00 13,3 9,6 - - 2 1 W 1019,1 12 0,0
15.08.2017 21:00:00 14,4 9,6 - - 5 3 W 1018,5 9 0,0
15.08.2017 20:00:00 17,1 9,9 - - 9 5 W 1017,8 11 0,0
15.08.2017 19:00:00 18,9 10,5 - - 15 8 W 1017,2 12 0,0
15.08.2017 18:00:00 19,9 11,0 - - 13 7 W 1016,8 12 0,0
15.08.2017 17:00:00 19,7 11,2 - - 15 8 W 1016,8 13 0,0
15.08.2017 16:00:00 20,1 10,9 - - 11 6 W 1016,3 13 0,0
15.08.2017 15:00:00 21,7 11,3 - - 11 6 W 1015,9 14 0,0
15.08.2017 14:00:00 20,7 9,9 - - 11 6 WSW 1015,7 14 0,0
15.08.2017 13:00:00 20,5 11,2 - - 9 5 WSW 1015,5 11 0,0
15.08.2017 12:00:00 19,2 11,6 - - 13 7 W 1015,5 12 0,0
15.08.2017 11:00:00 18,2 11,0 - - 13 7 W 1015,3 12 0,0
15.08.2017 10:00:00 16,9 11,7 15,7 15,0 11 6 W 1014,9 11 0,0
15.08.2017 09:00:00 16,1 12,4 - - 11 6 W 1014,5 9 0,0
15.08.2017 08:00:00 14,7 13,7 - - 2 1 S 1013,9 9 0,0
15.08.2017 07:00:00 12,4 12,4 - - 2 1 SSW 1013,5 7 0,0
15.08.2017 06:00:00 12,1 12,0 - - 4 2 S 1013,0 5 0,0
15.08.2017 05:00:00 12,0 12,0 - - 4 2 E 1012,8 7 0,0
15.08.2017 04:00:00 11,8 11,3 - - 0 0 N 1012,5 3,2 0,0
15.08.2017 03:00:00 12,7 12,4 - - 2 1 W 1012,7 9 0,0
15.08.2017 02:00:00 13,1 12,6 - - 2 1 WNW 1012,9 8 0,0
15.08.2017 01:00:00 14,0 13,6 - - 4 2 W 1013,1 6 0,0
15.08.2017 00:00:00 14,3 13,7 - - 4 2 SSE 1013,2 7 0,0
14.08.2017 23:00:00 14,3 13,4 - - 4 2 WSW 1013,7 11 0,2
14.08.2017 22:00:00 14,6 13,3 - - 5 3 SE 1013,7 7 0,0
14.08.2017 21:00:00 15,0 13,3 - - 8 4 SE 1014,1 11 0,0
14.08.2017 20:00:00 15,4 14,5 - - 5 3 SSE 1014,0 8 0,4
14.08.2017 19:00:00 16,5 14,8 - - 5 3 SSE 1013,9 5 0,4
14.08.2017 18:00:00 17,6 14,1 - - 5 3 SSE 1014,2 7 0,0
14.08.2017 17:00:00 18,5 14,2 - - 4 2 S 1014,3 12 0,0
14.08.2017 16:00:00 18,3 14,2 - - 5 3 SSE 1014,9 11 0,0
14.08.2017 15:00:00 18,1 14,2 - - 4 2 S 1015,3 11 0,0
14.08.2017 14:00:00 18,4 13,5 - - 8 4 SSE 1015,7 12 0,0
14.08.2017 13:00:00 17,9 13,4 - - 4 2 S 1015,9 12 0,0
14.08.2017 12:00:00 16,2 13,6 - - 8 4 SSE 1016,6 11 0,0
14.08.2017 11:00:00 14,7 13,1 - - 5 3 SSE 1017,2 9 0,0
14.08.2017 10:00:00 14,1 12,9 15,7 15,0 8 4 SE 1017,3 9 0,0
14.08.2017 09:00:00 13,4 12,8 - - 4 2 SSE 1017,9 5 1,2
14.08.2017 08:00:00 13,2 12,7 - - 5 3 SE 1017,9 5 0,0
14.08.2017 07:00:00 12,7 12,6 - - 4 2 SE 1017,9 5 0,4
14.08.2017 06:00:00 12,1 12,1 - - 4 2 SE 1017,9 3,2 0,0
14.08.2017 05:00:00 11,2 11,2 - - 0 0 N 1018,2 4,7 0,0
14.08.2017 04:00:00 9,6 9,6 - - 2 1 ENE 1018,6 8 0,0
14.08.2017 03:00:00 9,2 8,9 - - 4 2 NE 1018,9 9 0,0
14.08.2017 02:00:00 9,5 8,8 - - 4 2 ENE 1019,3 11 0,0
14.08.2017 01:00:00 10,7 10,0 - - 2 1 NE 1019,9 13 0,0
14.08.2017 00:00:00 11,5 9,8 - - 2 1 ENE 1020,2 11 0,0
13.08.2017 23:00:00 12,5 10,4 - - 4 2 ENE 1020,2 9 0,0
13.08.2017 22:00:00 13,1 10,1 - - 2 1 NE 1020,5 8 0,0
13.08.2017 21:00:00 14,2 10,4 - - 0 0 N 1020,4 7 0,0
13.08.2017 20:00:00 16,9 10,7 - - 2 1 SSE 1020,3 9 0,0
13.08.2017 19:00:00 18,9 10,7 - - 4 2 SW 1020,4 10 0,0
13.08.2017 18:00:00 18,9 10,7 - - 4 2 SW 1020,6 10 0,0
13.08.2017 17:00:00 20,4 10,2 - - 5 3 S 1020,6 10 0,0
13.08.2017 16:00:00 19,4 10,6 - - 5 3 SW 1021,0 10 0,0
13.08.2017 15:00:00 19,2 9,9 - - 5 3 SW 1021,3 10 0,0
13.08.2017 14:00:00 18,8 8,7 - - 4 2 SW 1021,5 11 0,0
13.08.2017 13:00:00 20,6 9,3 - - 5 3 SSW 1021,7 10 0,0
13.08.2017 12:00:00 19,6 9,2 - - 5 3 WSW 1022,1 11 0,0
13.08.2017 11:00:00 18,1 9,7 - - 4 2 S 1022,3 10 0,0
13.08.2017 10:00:00 16,1 10,1 16,0 15,0 2 1 SSE 1022,5 11 0,0
13.08.2017 09:00:00 12,7 11,4 - - 2 1 SSW 1022,6 8 0,0
13.08.2017 08:00:00 10,8 10,8 - - 2 1 W 1022,2 6 0,0
13.08.2017 07:00:00 8,1 8,1 - - 0 0 N 1022,1 3,2 0,0
13.08.2017 06:00:00 7,1 6,9 - - 2 1 ESE 1021,8 2,1 0,0
13.08.2017 05:00:00 8,2 8,1 - - 8 4 SSW 1021,7 7 0,0
13.08.2017 04:00:00 8,3 8,3 - - 8 4 W 1021,6 10 0,0
13.08.2017 03:00:00 8,8 8,8 - - 5 3 WNW 1021,5 16 0,0
13.08.2017 02:00:00 8,4 8,1 - - 2 1 WNW 1021,4 10 0,0
13.08.2017 01:00:00 9,5 9,0 - - 2 1 SSW 1021,3 14 0,0
13.08.2017 00:00:00 11,0 9,8 - - 4 2 WNW 1020,9 12 0,0
12.08.2017 23:00:00 12,0 10,1 - - 5 3 WNW 1020,8 9 0,0
12.08.2017 22:00:00 13,8 10,2 - - 4 2 W 1020,5 10 0,0
12.08.2017 21:00:00 15,4 10,6 - - 9 5 W 1019,9 9 0,0
12.08.2017 20:00:00 16,9 10,7 - - 8 4 W 1019,2 11 0,0
12.08.2017 19:00:00 18,8 11,6 - - 11 6 W 1018,5 11 0,0
12.08.2017 18:00:00 18,7 11,5 - - 18 10 W 1018,3 10 0,0
12.08.2017 17:00:00 19,9 11,7 - - 21 11 W 1017,5 11 0,0
12.08.2017 16:00:00 19,9 11,4 - - 22 12 W 1017,0 11 0,0
12.08.2017 15:00:00 20,0 12,8 - - 22 12 W 1016,9 10 0,0
12.08.2017 14:00:00 20,0 11,9 - - 18 10 W 1016,9 12 0,0
12.08.2017 13:00:00 19,4 11,3 - - 18 10 W 1016,7 11 0,0
12.08.2017 12:00:00 18,6 11,2 - - 13 7 W 1016,6 12 0,0
12.08.2017 11:00:00 16,7 10,6 - - 11 6 W 1016,5 11 0,0
12.08.2017 10:00:00 16,6 11,6 16,0 15,0 11 6 WSW 1016,2 11 0,0
12.08.2017 09:00:00 15,3 11,2 - - 8 4 W 1015,9 11 0,0
12.08.2017 08:00:00 16,4 11,4 - - 9 5 W 1015,5 11 0,0
12.08.2017 07:00:00 14,6 12,6 - - 5 3 WSW 1014,9 8 0,0
12.08.2017 06:00:00 14,5 12,4 - - 8 4 WSW 1014,5 8 0,0
12.08.2017 05:00:00 15,0 12,8 - - 5 3 WSW 1014,2 18 0,0
12.08.2017 04:00:00 15,7 14,2 - - 9 5 W 1014,3 22 0,2
12.08.2017 03:00:00 16,3 14,7 - - 4 2 WSW 1014,3 5 0,0
12.08.2017 02:00:00 16,6 14,8 - - 8 4 WSW 1014,6 18 0,0
12.08.2017 01:00:00 16,9 14,7 - - 8 4 W 1014,7 15 0,0
12.08.2017 00:00:00 17,0 14,4 - - 4 2 WSW 1014,9 15 0,0
11.08.2017 23:00:00 17,4 14,1 - - 9 5 WSW 1015,3 12 0,0
11.08.2017 22:00:00 18,0 14,6 - - 13 7 W 1015,2 18 0,0
11.08.2017 21:00:00 18,2 14,6 - - 9 5 WSW 1015,2 18 0,0
11.08.2017 20:00:00 18,4 14,7 - - 11 6 WSW 1015,1 18 0,0
11.08.2017 19:00:00 17,5 14,8 - - 5 3 SSE 1015,5 17 0,0
11.08.2017 18:00:00 18,4 14,8 - - 5 3 SW 1015,9 16 0,0
11.08.2017 17:00:00 18,2 14,6 - - 5 3 SW 1016,5 17 0,0
11.08.2017 16:00:00 18,5 14,5 - - 5 3 WSW 1017,0 16 0,0
11.08.2017 15:00:00 18,2 14,2 - - 8 4 SW 1017,3 15 0,0
11.08.2017 14:00:00 17,4 13,7 - - 4 2 W 1017,8 16 0,0
11.08.2017 13:00:00 16,6 13,5 - - 5 3 SSW 1018,4 13 0,0
11.08.2017 12:00:00 15,7 12,9 - - 8 4 WSW 1018,9 10 0,0
11.08.2017 11:00:00 15,9 11,2 - - 9 5 WSW 1019,4 12 0,0
11.08.2017 10:00:00 15,8 10,6 15,7 15,0 15 8 W 1019,6 12 0,0
11.08.2017 09:00:00 14,9 11,5 - - 5 3 SW 1019,8 12 0,0
11.08.2017 08:00:00 10,8 10,1 - - 2 1 SSE 1020,4 10 0,0
11.08.2017 07:00:00 8,4 8,4 - - 4 2 ENE 1021,0 6 0,0
11.08.2017 06:00:00 7,0 6,9 - - 5 3 W 1021,6 5 0,0
11.08.2017 05:00:00 7,5 7,3 - - 5 3 SW 1021,6 6 0,0
11.08.2017 04:00:00 8,1 7,6 - - 4 2 SW 1021,8 11 0,0
11.08.2017 03:00:00 8,7 7,7 - - 5 3 W 1022,2 16 0,0
11.08.2017 02:00:00 9,6 8,0 - - 8 4 WNW 1022,8 21 0,0
11.08.2017 01:00:00 10,9 8,3 - - 8 4 WNW 1023,4 10 0,0
11.08.2017 00:00:00 11,8 8,7 - - 8 4 NW 1024,0 11 0,0
10.08.2017 23:00:00 12,3 8,8 - - 5 3 WNW 1024,0 11 0,0
10.08.2017 22:00:00 13,2 9,2 - - 9 5 WNW 1023,8 12 0,0
10.08.2017 21:00:00 14,9 9,5 - - 9 5 WNW 1023,4 13 0,0
10.08.2017 20:00:00 17,9 10,1 - - 13 7 W 1023,1 14 0,0
10.08.2017 19:00:00 19,3 9,7 - - 8 4 W 1022,8 14 0,0
10.08.2017 18:00:00 21,7 8,6 - - 9 5 WSW 1023,1 15 0,0

tt = temperature
td = dewpoint
tt -20cm = temperature -20cm
tt -100cm = temperature -100cm
ff = wind speed
dd = wind direction
ppp = reduced air pressure
vv = visibility
rr = precipitation

Next stations